Regional Weather Roundup
Issued by NWS

Home | Current Version | Previous Version | Text Only | Print | Product List | Glossary On
Versions: 1 2 3 4 5 6 7 8 9 10 11 12 13 14 15 16 17 18 19 20 21 22 23 24 25 26 27 28 29 30 31 32 33 34 35 36 37 38 39 40 41 42 43 44 45 46 47 48 49 50
000
ASUS45 KPSR 081310
RWRAZ

ARIZONA HOURLY REGIONAL WEATHER ROUNDUP
NATIONAL WEATHER SERVICE PHOENIX AZ
600 AM MST MON FEB 08 2016

NOTE: FAIR INDICATES FEW OR NO CLOUDS BELOW 12,000 FEET WITH NO
SIGNIFICANT WEATHER AND/OR OBSTRUCTIONS TO VISIBILITY.

AZZ001>003-036-081400-
NORTHWEST ARIZONA

CITY           SKY/WX    TMP DP  RH WIND       PRES   REMARKS
BULLHEAD CITY  CLEAR     57  23  26 N24G36    30.31R
KINGMAN        CLEAR     40  20  44 E7        30.39S
$$

AZZ004>008-015-016-018-081400-
NORTH CENTRAL ARIZONA

CITY           SKY/WX    TMP DP  RH WIND       PRES   REMARKS
GRAND CANYON   PTCLDY    36  15  42 NE8       30.49S WCI  30
WILLIAMS       CLEAR     21  16  79 S8        30.50S WCI  12
PRESCOTT       PTCLDY    29  20  69 S7        30.40R WCI  22
FLAGSTAFF      CLEAR     34  12  40 E12       30.46R WCI  25
PAYSON         CLEAR     45  12  26 NE10G16   30.37R
PAGE           CLEAR     29  22  75 SW5       30.54R WCI  24
$$

AZZ009>014-017-081400-
NORTHEAST ARIZONA

CITY           SKY/WX    TMP DP  RH WIND       PRES   REMARKS
WINSLOW        MOCLDY    20  14  77 W3        30.51R
SAINT JOHNS    CLEAR     21  15  78 CALM      30.47R
WINDOW ROCK    CLEAR     20   0  41 CALM      30.48R
SHOW LOW       PTCLDY    21  14  73 CALM      30.48R
$$

AZZ023-081400-
GREATER PHOENIX AREA

CITY           SKY/WX    TMP DP  RH WIND       PRES   REMARKS
PHOENIX        PTCLDY    54  29  38 N3        30.18R
BUCKEYE        CLEAR     48  25  40 NW8       30.21R
GLENDALE       CLEAR     50  27  40 CALM      30.21
LUKE AFB       CLEAR     56  22  26 NE7       30.18R
DEER VALLEY    CLEAR     56  18  22 NE5       30.19R
SCOTTSDALE     CLEAR     53  23  31 NE3       30.21R
MESA-FALCON    CLEAR    N/A N/A N/A N17       30.19
MESA-GATEWAY   PTCLDY    46  28  49 SW5       30.20R
CHANDLER         N/A     46  30  53 CALM      30.19
$$

AZZ027-028-081400-
SOUTHWEST MARICOPA COUNTY AND PINAL COUNTY

CITY           SKY/WX    TMP DP  RH WIND       PRES   REMARKS
CASA GRANDE    CLEAR     48  23  37 NW7       30.19R
GILA BEND      FAIR      51  25  37 NE7       30.16R
$$

AZZ503-504-507>509-081400-
SOUTHEAST ARIZONA

CITY           SKY/WX    TMP DP  RH WIND       PRES   REMARKS
TUCSON         CLEAR     40  21  46 S3        30.21R
DAVIS-MONTHAN  CLEAR     47  17  29 SE5       30.19R
RYAN FIELD     CLEAR     48  21  34 E7        30.20
NOGALES        CLEAR     42  10  27 E6        30.22R
SIERRA VISTA   PTCLDY    37  16  42 S3        30.29R
DOUGLAS        CLEAR     32  13  45 VRB3      30.29R
SAFFORD        CLEAR     32  20  61 CALM      30.31R
$$

AZZ020-021-025-026-031-081400-
SOUTHWEST ARIZONA

CITY           SKY/WX    TMP DP  RH WIND       PRES   REMARKS
YUMA           CLEAR     64  21  19 N14       30.16R
$$

CAZ031-033-041-043-047-048-061-081400-
SOUTHERN CALIFORNIA

CITY           SKY/WX    TMP DP  RH WIND       PRES   REMARKS
DOWNTOWN L.A.  CLEAR     53  36  52 CALM      30.10S
L.A. AIRPORT   CLEAR     55  32  41 CALM      30.10S
SAN DIEGO      CLEAR     55  32  41 CALM      30.08F
BURBANK        CLEAR     72  19  13 CALM      30.11S
ONTARIO        CLEAR     73  18  12 NE16G29   30.12R
RIVERSIDE      CLEAR     70  20  15 N12G23    30.16S
PALM SPRINGS   CLEAR     69  23  17 N14       30.24R
EL CENTRO NAS  CLEAR     51  24  34 W12       30.20R
IMPERIAL       CLEAR     51  29  42 SW7       30.18R
BLYTHE         CLEAR     58  21  24 NW5       30.22R
NEEDLES        CLEAR     59  22  24 N21G28    30.29S
$$

NVZ020-UTZ003-081400-
SOUTHERN NEVADA-UTAH

CITY           SKY/WX    TMP DP  RH WIND       PRES   REMARKS
LAS VEGAS      CLEAR     51  23  33 N13       30.41S
SALT LAKE CITY PTCLDY    26  21  81 CALM      30.67R
$$

NMZ009-TXZ055-081400-
NEW MEXICO-WEST TEXAS

CITY           SKY/WX    TMP DP  RH WIND       PRES   REMARKS
ALBUQUERQUE    CLOUDY    33  19  56 N10       30.44R WCI  25
EL PASO        PTCLDY    39  16  39 W5        30.37R
$$


........................KEY........................
SKY/WX - SKY CONDITION/WEATHER
TMP    - TEMPERATURE IN FAHRENHEIT
DP     - DEW POINT IN FAHRENHEIT
RH     - RELATIVE HUMIDITY IN PERCENT
WIND   - DIRECTION AND SPEED IN MILES PER HOUR (MPH)
VRB    - VARIABLE WIND DIRECTION
PRES   - MEAN SEA LEVEL PRESSURE IN INCHES OF MERCURY
         F - FALLING PRESSURE   R - RISING PRESSURE
         S - STEADY PRESSURE
VSB    - VISIBILITY IN MILES
HX     - HEAT INDEX IN FAHRENHEIT
WCI    - WIND CHILL INDEX IN FAHRENHEIT
TC     - TEMPERATURE IN CELSIUS WHICH IS ALSO KNOWN AS
         TEMPERATURE IN CENTIGRADE
AFB    - AIR FORCE BASE
         LUKE AFB IS LUKE AIR FORCE BASE
         DAVIS-MONTHAN IS DAVIS-MONTHAN AIR FORCE BASE
NAS    - NAVAL AIR STATION
         EL CENTRO NAS IS EL CENTRO NAVAL AIR STATION
N/A    - NOT AVAILABLE




USA.gov is the U.S. government's official web portal to all federal, state and local government web resources and services.